User: anonymous   Login
Location: Newark
(51.0500°N, 12.4500°E)
Time: 09:07:21
(UTC+00:00)
Language:

Altair - Orbit

View from above orbital plane
View from above orbital plane
View from above satellite
View from above satellite

Ground track
Ground track

The orbit data is extracted from the following two-line orbital elements,

1    50U 60009B   20058.81812815 -.00000074  00000-0  11374-3 0  9990
2    50  47.2308 104.6456 0113309 355.6115   4.3674 12.20109497657164
Epoch (UTC): 27 February 2020 19:38:06
Eccentricity: 0.0113309
inclination: 47.2308°
perigee height: 1502 km
apogee height: 1682 km
right ascension of ascending node: 104.6456°
argument of perigee: 355.6115°
revolutions per day: 12.20109497
mean anomaly at epoch: 4.3674°
orbit number at epoch: 65716

The dashed part of the orbit path shows where the satellite is in the earth's shadow,  

DLR